DELTA 1 DEB, 3127

Orbit data source: Space-Track

DELTA 1 DEB, 3127 is space debris in LEO originally from a launch on Thu, 11 Jan 1968 UTC launched from the Air Force Western Test Range (AFWTR). Debris objects in space refer to the collection of defunct objects orbiting the Earth. Examples of debris include non-operational satellites, rocket bodies, and fragments generated from explosions, collisions, or faulty payload assembly.

Loading next visibility...
Identifier
3127, 1968-002D
Orbit
LEO
Last TLE update
1 day ago
Origin
Manufacturer
Unknown
Mission
Spacecraft
Bus & Motor
Unknown
Mass
Unknown
Launch date (UTC)
1968-01-11 (57 years ago)
Launch vehicle
Unknown
Launch site
Air Force Western Test Range (AFWTR)
Object type
Payload
Rocket body
Debris
Shape & HBR
Unknown
Radar Cross Section
Small (<0.1 m²)

Expand to show TLE details & history

TLE from 1 day ago
0 DELTA 1 DEB
1 03127U 68002D   25181.01486762 -.00000038  00000-0  11485-3 0  9994
2 03127 105.3337 196.3486 0321388 177.2701 259.7340 12.84870668693732
Epoch: 2025-06-30T00:21Z
TLE epoch observation values (Epoch: 2025-06-30T00:21:24.562Z)
Latitude
67.64162°
Longitude
-128.88947°
Altitude
1,385.066 km
Speed
7.149 km/s
True Right ascension
10h 19m 10s
True Declination
67° 31' 49"
Sunlit
Object was in daylight at epoch
Visualization orbit readout
Latitude
-9.98815°
Longitude
91.85676°
Altitude
1,086.999 km
Speed
7.421 km/s
Apparent Right ascension
03h 48m 04s
Apparent Declination
-47° 06' 02"
Sunlit
Object is in daylight
Visualization observer readout
Local Sidereal Time
22:12:53
Azimuth
131.987° SE
Elevation
-24.433°
Doppler factor
1
Orbital elements
Apogee altitude
1,567.09 km
Perigee altitude
1,072.292 km
Semi-major axis
7,697.828 km
Eccentricity
0.03214
Inclination
105.3337°
RAAN
196.3486°
Arg. of periapsis
177.2701°
True anomaly
Unknown
Mean anomaly
259.734°
Eccentric anomaly
Unknown
Mean motion
3.21359 °/min
Orbital period
112.02 mins
BSTAR
0.00011485
Loading maneuver chart data...
Loading SW <> Apogee altitude chart data...
Loading historical data...
Loading historical data...
Loading historical data...
Loading historical data...
Loading historical data...
Loading historical data...
Loading historical data...

DELTA 1 DEB Visibility forecast

Observer location: undefined°, undefined°

Span
Click to sort rows by Start time (UTC) header in descending order
Start Az.
Max El. time (UTC)
Max El. Az.
Max El.
End time (UTC)
End Az.
12 mins2025-07-01 13:57:25.225Z28.801° NE2025-07-01 14:04:25.225Z130.249° SE41.112°2025-07-01 14:09:25.225Z187.712° SSW
8 mins2025-07-01 15:49:25.225Z349.139° N2025-07-01 15:53:25.225Z303.46° NW23.287°2025-07-01 15:57:25.225Z261.258° W
11 mins2025-07-01 22:52:25.225Z92.43° ESE2025-07-01 22:57:25.225Z50.566° ENE22.672°2025-07-01 23:03:25.225Z0.973° NNE
15 mins2025-07-02 00:38:25.225Z157.462° SSE2025-07-02 00:46:25.225Z299.065° NW44.872°2025-07-02 00:53:25.225Z336.99° NNW
9 mins2025-07-02 02:32:25.225Z231.612° WSW2025-07-02 02:36:25.225Z262.91° W17.631°2025-07-02 02:41:25.225Z301.247° NW
|